Powrót do katalogu

COSMOS 2491 DEB

AktywnyPO
NORAD 57550·DEBRIS·🇷🇺 Russia

Wystrzelony Dec 25, 2013 z Plesetsk Cosmodrome

Loading…

Następne Przeloty (najbliższe 24 godziny)

TLE

Starzejące sięSource: Space-Track

Epoka: Sep 4, 2026, 17:31 UTC

1 57550U 13076AM  26247.73035989  .00002539  00000-0  10905-1 0  9999
2 57550  82.4578  44.6691 0194357 266.7251  91.1597 12.75781055154234

Śledź COSMOS 2491 DEB w czasie rzeczywistym z AllMySat

Download on the App Store